Location: Saint-Palais-sur-Mer
(45.6429°N, 1.0859°W)
Time: 00:57:15
(UTC+02:00)

TIGRISAT - Visible Passes

Search period start: 25 April 2024 00:00
Search period end: 05 May 2024 00:00
Orbit: 594 x 674 km, 97.7° (Epoch: 24 April)

Date Brightness Start Highest point End Pass type
(mag) Time Alt. Az. Time Alt. Az. Time Alt. Az.
25 Apr ? 05:54:16 10° SSE 05:58:39 82° ENE 06:02:57 10° N visible
26 Apr ? 04:41:40 10° E 04:44:14 16° ENE 04:46:47 10° NNE visible
26 Apr ? 06:15:55 10° S 06:20:13 59° W 06:24:28 10° NNW visible
27 Apr ? 05:02:05 10° ESE 05:05:34 24° ENE 05:09:01 10° NNE visible
28 Apr ? 05:22:57 10° SE 05:26:58 38° ENE 05:30:55 10° N visible
29 Apr ? 05:44:07 10° SSE 05:48:23 64° ENE 05:52:37 10° N visible
30 Apr ? 04:32:13 10° E 04:34:02 13° ENE 04:35:50 10° NE visible
30 Apr ? 06:05:34 10° S 06:09:52 76° WSW 06:14:08 10° NNW visible
01 May ? 04:52:12 10° ESE 04:55:16 20° ENE 04:58:19 10° NNE visible
02 May ? 05:12:49 10° SE 05:16:34 30° ENE 05:20:17 10° N visible
03 May ? 05:33:47 10° SSE 05:37:55 50° ENE 05:42:01 10° N visible
04 May ? 05:55:02 10° SSE 05:59:18 85° ENE 06:03:33 10° NNW visible
